Theta_e
321 318 318 316 317 318 317 318 319 319 319 320 320 320 320 319 319 318 319 318 316 316 315 314 314 314 314 314 314 313 312 311 311 309 307 307 303 302 307 305 304 305 305 305 306 300 298 299 298 303 303 304 304 303 303 303 303 303 303 304 303 303 303
319 318 317 318 317 318 317 317 318 317 318 319 319 319 319 318 318 317 317 317 316 314 314 313 313 313 313 312 311 310 309 308 308 308 306 304 305 304 304 304 304 302 303 303 304 303 299 300 297 298 300 303 304 302 303 304 304 304 303 303 303 303 304
318 317 318 316 317 317 316 316 316 317 317 317 318 318 317 317 317 317 316 316 315 314 313 313 312 311 311 310 309 309 308 307 307 306 305 304 304 305 305 305 304 304 304 303 302 302 302 301 296 296 299 299 298 301 303 302 303 303 303 303 303 302 303
317 317 317 316 316 316 315 315 315 316 317 316 316 317 317 316 316 317 316 315 315 314 313 312 311 309 309 308 308 308 307 306 305 305 305 305 304 304 304 303 302 301 300 299 300 301 301 299 298 297 299 297 296 298 300 302 302 302 302 302 302 302 303
319 318 317 315 316 315 315 315 315 315 315 315 315 315 315 316 316 314 314 313 313 313 312 311 311 310 309 308 307 306 306 306 306 305 305 304 303 303 303 303 302 302 302 301 301 301 300 299 300 299 296 298 300 299 300 302 303 301 301 301 301 302 302
320 319 318 316 316 315 315 314 315 314 314 313 313 313 314 315 314 314 313 312 312 312 311 310 310 309 308 306 306 305 305 305 304 304 302 303 303 302 301 303 302 302 301 303 303 302 302 302 300 298 298 299 296 298 299 299 298 301 300 301 301 301 301
319 318 317 315 316 315 315 315 315 314 313 313 313 313 314 314 314 314 313 312 311 311 310 310 309 308 307 304 305 304 304 304 304 303 302 303 303 303 303 301 302 301 302 303 302 302 301 300 298 298 298 300 299 297 299 298 299 296 297 300 301 301 302
317 315 314 315 314 313 314 314 315 314 313 313 312 313 314 314 314 313 313 312 311 311 310 309 308 307 307 305 305 305 304 305 304 303 302 302 301 301 303 302 301 301 302 301 302 301 301 300 299 299 298 295 296 298 297 299 299 298 296 299 300 300 301
316 315 313 313 313 314 315 314 314 314 313 313 313 313 314 314 313 312 312 311 310 309 308 307 306 306 306 305 304 304 303 304 303 302 302 302 302 302 302 302 301 300 302 301 302 301 300 301 300 300 298 297 294 292 296 296 297 296 298 297 299 300 300
315 314 313 312 313 314 315 314 313 313 314 313 313 313 313 313 312 312 311 310 310 309 308 307 306 306 305 305 304 304 303 304 303 302 302 301 301 301 301 301 300 300 301 302 301 301 301 301 301 300 299 297 296 293 291 292 295 295 297 297 295 298 300
315 313 312 312 313 313 314 313 313 312 312 312 312 312 312 312 311 311 310 310 310 309 307 306 305 305 305 304 304 304 304 304 302 302 302 301 301 301 301 300 300 299 301 300 300 301 301 301 299 300 299 299 298 294 293 291 293 297 296 298 298 296 298
314 312 311 312 313 313 312 312 312 312 312 312 312 312 311 311 311 310 310 309 309 307 307 306 305 305 305 304 304 303 304 303 301 301 302 302 301 301 300 299 300 299 301 301 300 300 301 300 299 299 298 299 298 298 295 294 291 296 298 296 298 299 298
311 310 311 311 313 312 312 312 312 311 311 312 311 311 310 310 310 310 309 308 307 307 306 305 305 305 305 304 304 303 303 302 301 300 300 301 301 301 299 299 299 299 300 300 300 300 299 300 301 298 298 298 298 298 297 295 293 293 297 297 298 299 299
310 311 311 312 312 312 312 312 312 311 310 310 311 310 310 309 309 309 308 308 307 306 305 305 305 305 304 304 303 303 302 301 300 300 300 300 301 300 299 298 298 299 300 300 300 300 299 299 299 299 299 297 297 298 297 295 293 293 297 299 299 298 300
310 310 311 311 312 311 311 311 311 310 310 310 310 309 309 309 309 309 308 307 307 306 305 305 305 304 303 302 303 303 302 301 300 300 300 298 299 300 300 298 298 299 300 299 300 298 298 298 297 296 297 297 296 296 298 295 294 293 293 297 297 299 299
309 310 310 310 311 310 310 310 310 309 309 309 310 309 309 309 308 308 308 307 306 306 305 304 305 304 303 302 301 302 302 301 301 300 299 298 298 300 299 299 298 300 301 300 300 300 300 299 298 298 298 298 297 297 297 297 296 294 294 295 298 297 298
309 310 310 311 310 310 309 309 309 309 308 308 308 309 309 308 308 308 307 307 306 306 305 304 304 303 303 302 302 301 302 302 301 300 299 298 299 299 299 298 299 300 301 300 299 299 299 299 298 298 297 297 298 296 298 298 298 296 295 294 297 296 297
309 310 310 310 310 309 309 308 308 308 308 308 307 307 307 308 308 307 307 306 306 305 305 304 303 303 304 304 303 302 301 301 302 301 300 299 299 299 299 299 299 300 300 300 299 298 299 299 298 298 297 296 296 297 298 298 298 297 296 295 295 297 298
310 311 310 309 309 308 308 308 308 308 308 307 307 307 307 307 307 306 306 306 306 305 305 304 303 302 303 304 304 303 303 302 301 301 301 300 299 300 300 299 300 301 300 299 299 299 299 299 298 298 297 296 296 297 298 298 298 297 297 295 296 296 298
310 310 309 308 308 307 307 308 307 307 307 307 307 306 306 306 307 306 306 306 306 306 305 304 304 304 303 303 303 303 303 302 302 302 301 300 300 300 300 300 301 301 301 300 299 299 299 299 299 298 297 297 297 297 297 297 297 297 296 296 296 297 296
310 309 308 307 307 307 307 307 307 307 306 306 306 306 306 306 306 306 306 306 306 306 306 305 304 304 303 304 304 303 303 303 302 302 302 301 301 301 301 301 301 302 301 300 300 300 300 298 298 297 297 297 297 297 297 297 297 296 296 295 295 295 296
309 307 306 306 306 305 305 306 306 305 306 306 306 306 306 305 304 304 305 305 305 306 305 305 305 305 304 304 304 303 303 302 302 302 301 301 301 301 301 301 302 301 302 300 298 297 297 296 297 296 297 297 297 297 297 297 296 295 295 295 295 296 295
306 306 305 305 305 305 304 304 304 304 304 305 305 305 305 305 305 304 304 304 305 305 306 306 304 301 302 304 304 304 304 304 302 302 301 301 301 301 300 301 302 299 299 299 297 295 294 294 295 297 296 296 295 295 296 295 295 295 295 294 294 294 294
305 304 304 304 304 304 303 303 303 303 303 303 303 304 304 303 304 304 304 304 304 305 305 304 297 294 295 298 304 305 304 303 303 302 301 301 301 301 300 300 302 301 301 300 300 296 295 293 293 293 293 293 293 295 294 294 294 295 294 294 295 295 294
304 303 304 303 303 303 303 302 302 302 302 302 303 303 303 303 304 304 305 305 305 305 306 300 293 293 294 294 300 305 305 303 303 302 302 301 301 301 301 300 301 302 301 300 300 299 298 296 293 293 292 292 292 292 291 293 293 293 294 294 294 295 295
303 303 303 303 303 302 301 301 301 301 301 302 302 302 303 303 303 303 304 304 304 305 305 295 293 293 293 293 295 301 304 304 302 302 302 302 301 301 301 299 300 302 301 298 299 298 298 298 296 294 295 295 294 293 290 289 291 294 295 295 295 295 295
302 302 303 303 302 301 301 301 301 301 301 301 301 301 302 302 302 303 303 304 304 305 305 295 293 293 293 292 292 298 304 305 304 303 302 302 302 302 300 300 300 300 301 301 300 299 298 298 298 298 298 297 297 296 294 293 292 292 294 297 296 295 296
302 302 302 302 301 301 301 301 300 300 300 300 300 300 301 301 302 302 303 304 304 304 304 293 292 292 292 292 292 297 306 305 304 304 304 303 302 302 301 302 301 300 300 300 299 297 298 298 298 298 297 297 296 297 298 296 296 296 296 297 297 297 297
302 302 301 301 300 300 300 300 299 299 299 299 300 300 301 301 301 302 303 303 303 303 301 291 291 291 291 291 292 303 304 304 303 303 303 302 302 302 301 302 301 300 300 299 296 290 293 298 298 297 297 297 297 298 297 296 293 293 295 296 296 296 296
300 300 299 298 298 298 298 298 298 298 297 297 297 298 300 301 302 301 301 302 303 302 300 293 291 291 291 291 296 303 304 302 302 302 302 302 301 301 302 302 301 300 300 299 294 289 290 293 298 297 297 297 297 297 296 297 294 293 292 291 291 291 290
299 298 298 297 297 297 297 297 296 296 296 296 297 298 300 300 301 301 301 301 302 301 301 296 290 291 291 291 298 303 302 302 301 301 301 301 301 301 302 299 299 301 300 299 291 290 289 296 298 297 297 296 296 296 296 297 297 297 294 293 293 292 292
299 298 297 298 297 296 295 295 296 296 296 297 298 299 299 299 299 300 301 302 300 301 300 296 290 291 291 291 298 302 301 301 300 300 300 299 300 300 300 298 296 297 299 297 288 290 289 295 298 298 297 297 295 295 296 296 296 295 295 296 297 298 297
299 298 297 297 296 296 296 295 295 295 296 297 297 298 298 299 299 299 300 301 300 301 300 299 296 290 291 291 293 301 301 300 299 299 300 299 298 299 300 300 297 289 289 289 289 288 289 289 296 298 298 297 296 294 296 296 296 295 295 295 296 297 298
300 300 300 297 296 296 296 296 295 295 295 296 296 297 298 299 299 299 299 301 300 301 301 299 297 290 291 291 291 295 300 300 300 299 299 299 299 298 298 299 300 293 289 289 289 289 289 289 290 298 299 297 296 295 292 295 296 295 296 296 296 295 295
302 301 300 298 296 296 296 297 296 297 296 296 296 296 297 298 298 298 299 299 299 299 299 298 298 291 290 291 290 291 299 300 301 300 299 299 298 298 298 299 300 295 289 289 289 289 289 290 289 297 299 291 288 288 293 295 297 297 297 296 295 294 294
301 301 299 298 297 297 296 296 296 296 296 296 296 295 295 296 297 297 298 298 298 298 299 297 294 296 291 290 290 290 293 297 290 301 299 298 298 298 300 301 300 292 289 289 289 289 289 288 291 298 289 288 288 287 290 297 297 297 296 296 296 295 294
301 300 299 298 299 298 296 295 294 295 295 295 294 294 294 296 296 296 296 295 296 297 299 298 294 293 294 289 290 290 289 291 291 299 300 299 299 299 300 301 299 290 289 289 288 289 289 289 295 290 288 288 288 290 297 298 296 297 295 295 294 294 294
Wind_Speed
5 7 6 6 5 5 5 6 5 5 5 6 6 6 6 7 6 6 6 6 7 6 6 7 6 5 6 6 6 6 5 5 5 5 6 5 6 6 6 8 9 9 8 9 6 4 2 2 4 4 5 4 5 6 5 5 6 7 7 6 7 7 7
7 7 7 6 6 5 7 5 6 6 6 6 6 6 7 7 6 6 6 7 7 7 7 7 7 7 8 7 6 6 6 6 6 6 7 6 6 5 4 5 5 6 7 7 5 5 5 2 4 5 4 1 2 6 5 4 4 5 6 7 6 7 7
5 7 7 7 6 5 6 6 5 5 5 6 6 7 7 8 7 7 7 8 7 7 7 8 8 8 7 8 8 7 7 8 7 7 8 7 7 6 6 4 4 4 4 4 6 4 4 6 5 7 6 7 5 3 4 4 3 2 4 6 6 7 7
9 9 9 8 7 7 7 6 5 5 5 6 6 6 7 7 7 7 7 7 7 7 7 7 7 7 7 7 8 9 9 9 8 9 9 9 7 8 8 7 7 7 6 7 6 6 6 6 5 6 6 6 5 5 5 5 4 2 3 5 6 6 7
11 9 10 10 9 8 7 7 6 6 6 6 6 6 6 6 6 6 7 7 7 7 7 6 6 7 7 7 7 7 8 8 8 8 8 9 9 8 9 7 7 7 7 7 6 6 6 6 5 4 5 5 1 2 3 4 2 4 4 6 7 7 7
9 10 10 9 8 8 7 7 7 7 7 7 6 7 6 7 7 7 7 6 6 6 7 7 7 7 7 7 8 8 8 9 8 9 9 9 9 8 7 7 7 7 7 6 6 6 5 4 5 4 4 2 3 3 4 3 5 3 2 6 8 7 8
9 8 7 8 7 6 6 7 7 7 7 7 7 7 6 7 6 7 7 8 7 8 8 8 8 7 8 8 8 9 9 8 9 10 10 10 9 9 8 8 8 7 7 6 6 6 6 6 6 7 6 4 1 4 3 4 4 6 5 6 7 7 8
7 7 6 6 6 7 6 7 6 6 7 7 7 6 7 7 8 8 8 8 7 8 8 7 7 8 8 8 8 8 8 8 9 9 9 10 10 11 10 8 8 8 7 7 6 6 6 6 6 7 8 10 7 4 6 3 4 3 5 9 9 7 9
8 7 6 5 5 6 7 7 7 7 7 7 7 7 7 8 8 9 8 8 8 8 8 8 8 8 8 8 8 8 9 6 9 10 9 10 10 11 10 9 9 8 7 6 6 6 6 6 6 6 7 8 8 10 10 7 7 7 5 9 9 9 12
9 10 8 9 8 7 7 7 7 7 8 7 7 7 8 8 8 8 9 8 8 8 8 8 8 8 8 8 8 9 9 8 9 9 8 9 9 9 9 10 9 7 7 6 6 6 6 6 6 6 7 7 6 6 7 9 8 8 10 11 10 11 13
9 8 8 9 8 8 7 7 8 8 7 7 7 7 8 9 8 9 8 8 8 8 8 8 8 9 9 8 9 8 8 8 9 8 8 9 9 8 8 8 7 7 6 6 6 6 6 6 6 6 5 4 5 5 5 7 9 6 8 9 10 11 12
8 8 7 8 8 9 9 8 8 8 8 8 8 8 9 9 8 8 8 8 8 8 8 8 8 8 9 9 8 8 7 8 8 9 8 8 7 7 8 8 7 7 6 6 6 6 5 5 5 5 5 3 3 3 5 5 8 5 6 10 9 10 12
8 9 9 9 9 9 9 9 9 9 8 7 8 9 9 9 9 9 8 9 9 8 9 8 8 8 8 8 8 8 7 9 10 10 8 7 6 7 8 9 7 6 5 6 6 6 5 5 4 4 4 4 3 2 3 5 6 11 9 8 10 10 12
9 8 9 9 10 9 9 9 8 8 8 8 8 9 9 9 9 9 10 9 9 9 9 8 7 8 8 8 8 8 8 9 10 9 8 8 7 7 8 8 8 7 6 6 5 5 5 5 5 4 4 4 4 3 4 5 7 10 9 7 9 10 11
9 9 10 9 10 10 9 8 9 9 9 8 8 9 10 8 8 9 9 10 9 10 9 9 8 8 9 9 8 6 8 9 10 9 8 8 8 6 7 8 8 7 5 6 6 7 6 6 6 6 5 5 5 5 4 5 7 8 11 10 9 9 10
9 11 11 9 10 10 9 9 9 9 9 8 7 8 9 9 9 9 9 9 10 9 10 9 8 9 9 10 9 8 8 9 9 8 8 8 8 7 7 7 7 5 4 6 6 6 6 6 6 6 6 5 5 5 5 5 6 8 10 10 10 11 11
11 11 11 9 11 10 9 9 9 9 9 8 8 7 8 9 9 9 9 9 9 9 9 9 9 9 9 9 10 10 9 8 8 8 8 7 7 7 7 6 6 5 5 6 6 6 6 7 6 6 7 6 6 6 6 5 6 7 8 10 11 11 11
11 11 11 10 11 11 10 9 8 9 9 8 8 8 7 8 8 9 8 10 10 10 10 10 9 9 8 8 9 8 8 8 7 8 7 7 6 6 6 6 5 5 6 6 6 7 7 8 7 6 7 7 6 6 6 6 7 7 8 10 10 10 10
12 12 12 11 12 10 10 10 9 8 9 9 8 8 9 7 8 9 9 10 10 10 9 9 10 9 9 8 8 7 7 7 7 7 6 6 6 5 5 5 5 5 6 7 6 6 6 7 7 7 8 7 7 7 7 7 7 8 8 9 11 11 10
11 11 11 11 10 10 10 9 9 9 8 9 9 8 8 8 6 8 9 9 9 9 9 9 9 8 8 8 8 8 7 7 6 5 5 6 5 5 5 5 5 5 6 6 7 7 7 7 6 8 7 7 7 8 8 7 8 8 8 10 9 10 11
11 10 10 10 10 10 9 9 9 8 8 9 9 9 9 8 7 7 8 8 8 7 8 8 8 8 8 8 7 7 7 7 6 6 5 5 4 4 4 4 5 6 6 6 6 6 6 6 7 7 7 7 8 8 7 8 8 8 9 9 10 12 10
9 10 11 11 10 10 9 9 8 8 8 8 6 8 8 8 8 7 7 7 8 7 7 7 6 7 8 8 7 7 7 7 6 6 5 5 4 3 3 4 5 6 6 6 7 6 5 4 6 7 8 8 8 8 8 8 8 8 9 9 10 10 11
10 10 11 11 11 10 9 9 8 8 8 8 7 7 8 7 8 8 8 8 7 6 6 4 6 8 7 7 7 6 6 6 6 6 5 4 4 3 3 3 4 6 5 5 5 5 4 5 4 4 5 7 7 7 7 8 8 9 9 10 11 12 12
11 11 11 11 10 10 10 8 8 8 8 8 8 8 7 8 8 8 9 8 8 6 5 5 9 8 7 7 7 7 7 6 6 5 5 4 3 3 2 3 4 4 3 3 3 3 5 6 7 7 6 4 3 4 6 7 8 8 9 9 10 11 11
12 11 11 11 11 10 9 9 9 8 8 8 8 7 8 8 8 7 7 8 8 7 6 7 11 9 8 9 7 6 6 6 6 5 4 4 3 2 2 2 3 3 3 4 4 5 5 5 7 8 9 7 4 2 0 2 6 8 9 9 10 11 11
12 11 11 11 10 9 10 9 9 9 9 8 8 8 9 8 8 7 7 9 8 7 6 8 9 10 9 9 8 7 6 6 6 5 5 4 3 1 1 2 3 3 2 2 3 6 6 7 7 8 7 8 5 6 7 4 5 4 7 8 9 11 11
12 11 11 11 10 10 10 9 8 7 8 8 8 8 8 9 8 8 8 8 8 7 6 8 9 10 10 9 9 6 6 6 5 5 5 4 3 2 2 2 2 3 3 3 4 6 6 7 8 8 8 9 8 9 7 7 9 8 8 7 8 10 12
12 12 12 11 10 10 9 8 9 7 8 8 9 9 9 9 7 8 7 7 7 6 5 9 9 10 10 10 9 5 5 4 4 5 4 4 3 2 2 2 2 2 2 3 4 5 6 7 7 7 8 8 8 8 7 9 9 8 8 7 8 9 11
11 11 11 10 10 9 9 9 9 7 7 6 6 6 6 7 8 8 7 7 8 7 6 8 9 10 10 10 9 5 5 5 5 5 5 5 4 3 2 2 2 2 2 3 5 5 5 6 7 8 9 9 9 8 7 7 7 7 7 7 8 9 10
8 7 7 10 9 9 9 8 7 7 7 7 7 8 8 8 7 8 8 8 9 7 7 7 8 10 10 11 8 6 6 6 5 6 5 5 4 3 2 2 2 1 1 3 5 6 6 6 6 7 8 9 8 8 9 9 11 12 12 12 12 13 14
12 9 9 10 10 8 6 6 6 7 8 9 8 8 8 7 7 7 8 8 8 8 7 7 9 9 10 11 8 7 7 6 6 6 5 4 4 3 3 3 1 1 1 3 5 4 6 5 6 7 8 8 9 10 11 10 9 9 12 12 12 12 13
14 13 12 7 6 8 8 7 6 6 6 7 8 8 8 8 7 6 7 7 7 8 7 7 8 9 9 9 7 7 7 7 7 7 6 5 4 3 4 4 2 2 2 3 4 3 4 4 5 6 7 7 8 9 9 10 10 11 11 11 11 11 11
14 14 9 8 7 6 6 6 6 6 6 6 7 8 8 8 9 7 6 7 7 7 8 7 8 9 9 9 9 7 7 7 8 8 6 6 5 4 4 4 5 5 1 0 2 4 3 1 3 5 5 6 7 9 9 9 9 9 10 9 10 10 11
13 12 12 13 11 10 7 7 6 6 7 6 7 7 8 8 8 7 7 7 7 6 6 8 7 9 9 9 8 8 7 7 7 7 7 6 5 5 4 3 3 6 2 2 3 4 4 2 2 4 4 5 5 7 9 9 10 10 9 9 9 9 9
11 12 11 10 10 9 9 9 9 8 7 8 9 8 8 8 8 8 7 6 7 7 6 7 8 7 8 8 9 8 6 7 6 7 6 6 5 4 3 2 2 4 1 1 3 5 5 5 3 4 3 3 6 7 7 8 8 8 8 8 8 8 9
12 9 10 10 11 11 10 10 9 8 8 9 9 9 8 8 8 8 7 7 7 7 7 6 7 7 8 8 7 7 4 5 2 5 6 6 5 4 2 2 2 3 1 2 4 5 6 5 6 3 3 6 7 9 9 6 7 7 8 9 9 9 9
11 10 12 11 10 10 10 8 7 6 7 8 8 8 8 8 9 9 9 8 7 7 6 6 6 7 7 8 7 7 6 6 7 4 4 4 4 2 3 2 1 1 3 3 5 6 7 5 4 6 7 7 8 8 6 7 6 8 8 9 10 10 10
Wind_Direction
127 128 119 102 97 111 105 98 97 88 85 88 94 92 95 94 92 88 86 84 83 79 79 75 74 73 78 70 68 72 68 61 63 86 86 68 82 80 61 71 71 63 56 52 27 37 45 116 73 91 63 39 56 47 39 34 35 30 27 15 17 13 12
121 121 118 114 110 107 102 97 95 96 91 85 88 92 90 90 89 88 83 83 83 83 83 82 77 76 76 80 76 72 70 66 63 67 80 74 76 91 102 85 82 79 74 66 60 39 42 51 68 35 17 84 137 56 36 23 21 17 18 14 8 7 3
128 124 124 122 119 117 107 106 108 109 108 100 90 88 90 90 90 89 86 84 84 83 81 84 87 84 82 79 76 78 78 78 68 68 73 78 74 68 65 71 77 90 86 79 53 51 61 50 49 23 10 7 25 53 36 12 352 359 4 10 2 4 2
142 136 130 127 127 124 123 123 117 112 109 106 101 91 92 97 93 89 89 87 86 86 88 91 90 93 90 88 84 79 74 77 77 77 78 75 75 71 66 63 65 59 58 57 43 42 42 35 28 29 18 12 354 3 22 359 344 342 352 6 3 3 356
147 145 138 135 140 137 136 130 126 119 114 109 104 102 97 100 99 94 95 94 91 91 89 93 96 96 93 89 85 83 82 79 80 79 79 79 76 76 68 67 67 64 60 57 53 43 42 39 30 18 8 345 251 353 349 335 313 339 347 357 2 357 353
142 139 138 137 142 143 143 140 137 129 127 119 113 111 110 112 111 109 107 103 98 95 100 98 95 93 91 90 89 86 82 78 76 77 76 70 69 71 74 69 68 65 63 59 51 49 45 41 26 13 6 342 347 349 10 351 1 337 351 352 351 350 346
136 133 132 137 141 140 144 138 137 136 129 123 123 118 123 119 109 106 103 100 101 105 102 97 97 95 96 97 93 91 88 85 83 80 78 75 71 71 72 73 67 67 66 56 54 49 42 36 29 17 351 358 274 357 14 356 12 3 17 358 348 342 342
130 126 128 133 138 139 133 130 129 126 123 124 122 120 123 116 111 109 108 110 113 109 104 102 100 98 97 99 96 94 90 86 83 80 77 75 72 69 68 70 73 67 63 58 55 53 51 46 37 21 15 7 3 2 2 7 0 43 341 338 349 350 347
129 125 121 127 131 131 130 131 127 121 120 121 119 124 122 122 117 113 113 113 113 110 107 106 107 106 106 105 102 98 94 90 89 85 84 78 74 70 69 70 71 66 62 60 59 58 54 48 44 37 29 27 11 354 349 353 1 6 5 348 338 347 345
139 142 140 138 131 124 124 125 124 122 121 120 122 121 122 119 119 119 119 119 115 112 109 109 112 111 109 105 104 102 96 93 88 84 81 79 77 71 70 67 70 71 66 64 62 59 53 49 47 43 35 34 13 359 351 334 353 343 342 352 341 338 340
138 128 129 134 131 127 126 123 125 129 127 124 125 126 125 123 119 121 122 121 118 115 115 115 114 113 111 106 105 101 100 99 94 89 82 80 75 74 72 72 72 74 68 65 64 54 49 44 41 37 36 29 19 7 351 332 322 330 324 333 339 332 334
129 126 125 127 129 133 135 136 133 127 125 129 131 132 130 128 127 124 125 124 122 120 120 118 119 115 113 111 110 108 106 101 95 89 83 80 79 79 80 80 79 77 71 66 59 52 46 39 33 33 28 15 21 3 337 325 315 332 338 323 327 325 325
132 134 137 137 136 137 138 136 133 133 134 133 133 134 132 133 132 130 130 129 127 127 124 122 121 120 119 115 116 113 109 104 96 90 88 83 86 88 88 84 76 69 63 62 56 46 42 36 27 25 19 7 8 350 323 313 304 306 325 320 317 318 326
135 136 136 136 133 136 137 137 137 133 131 133 136 135 135 135 134 132 133 135 134 133 130 127 126 125 122 121 117 114 112 104 98 96 97 94 92 92 88 85 78 67 59 54 47 44 37 26 20 20 11 360 357 356 335 321 315 312 315 327 320 324 323
137 140 136 136 136 139 142 139 136 136 134 134 141 138 135 133 136 136 137 138 138 135 134 131 133 131 128 126 122 116 113 106 104 103 102 98 97 93 88 81 74 67 54 53 45 40 30 24 16 15 10 359 356 354 349 328 324 318 321 326 328 325 328
141 141 138 139 142 141 139 137 141 138 137 137 137 137 135 137 138 139 138 141 141 139 138 137 137 136 134 130 125 121 116 114 111 110 105 103 102 98 89 79 70 59 49 48 42 36 26 20 10 8 358 354 350 349 345 336 327 328 325 323 326 330 335
146 145 143 145 144 143 142 140 142 139 137 139 136 129 136 138 138 143 143 144 145 144 143 142 143 141 137 132 129 125 122 119 114 108 106 106 104 94 85 78 65 49 40 42 34 29 25 13 8 360 356 356 348 350 340 337 340 325 324 323 333 331 333
149 148 145 145 145 145 143 141 143 142 139 138 136 137 135 139 144 148 149 151 150 150 149 148 146 145 141 137 132 130 129 124 118 111 107 107 102 93 82 71 58 44 36 34 31 26 17 10 3 360 358 356 353 348 342 341 338 332 325 326 324 326 325
154 151 147 145 147 147 144 145 143 143 145 139 140 144 143 148 154 154 152 153 154 153 152 151 149 148 145 142 138 136 134 132 124 119 116 107 102 92 75 62 50 36 36 32 27 20 9 3 356 357 1 355 354 348 343 341 338 333 326 325 325 326 336
152 150 148 147 146 146 147 147 147 145 146 144 146 146 149 148 151 153 152 153 155 155 155 155 152 150 152 151 149 145 144 140 135 127 120 112 103 90 71 55 46 39 34 29 24 17 5 356 350 355 2 354 352 347 343 341 339 335 333 329 329 334 333
150 148 145 145 147 147 146 146 145 141 143 146 150 152 152 152 148 150 150 154 153 155 154 155 155 157 159 159 157 155 152 150 144 138 130 119 110 96 75 58 49 43 38 39 25 17 7 356 352 358 2 355 352 346 343 342 339 339 339 338 338 340 340
145 141 143 145 145 146 148 144 142 143 147 146 145 150 150 150 149 149 150 152 155 157 160 159 159 161 162 166 165 163 163 159 153 146 139 129 124 110 86 64 51 45 46 42 37 24 19 357 355 358 1 355 351 344 341 341 341 341 339 339 344 343 339
146 145 147 149 150 149 146 144 144 146 149 149 147 147 151 153 154 155 154 156 158 162 163 158 151 160 166 168 173 170 169 165 162 154 147 140 134 119 90 72 67 53 42 35 31 10 1 7 0 1 358 358 350 345 342 340 340 343 339 341 346 342 345
149 150 151 149 149 149 147 145 147 148 147 149 151 154 157 158 158 158 160 160 163 166 163 156 152 167 170 171 175 178 175 171 168 162 160 154 139 128 102 68 64 60 46 26 23 354 357 7 354 352 353 349 345 346 347 339 339 336 339 339 340 343 344
151 151 152 152 152 149 145 148 150 150 149 153 157 159 161 163 157 155 156 162 164 165 164 140 161 165 173 179 187 177 176 171 173 171 170 165 152 138 85 61 68 73 44 20 356 6 8 6 354 350 346 337 330 332 263 321 329 334 337 333 336 341 341
151 150 155 152 148 146 150 152 153 154 158 159 157 163 166 158 159 158 161 163 164 162 160 150 167 167 174 182 180 180 174 174 178 178 177 177 166 145 63 53 53 71 62 341 358 15 5 6 7 355 338 341 359 7 340 314 253 291 322 319 330 329 341
151 152 151 150 148 151 156 158 155 154 150 155 160 161 160 161 158 163 166 166 161 158 156 157 170 172 174 172 172 187 167 175 182 179 181 173 171 149 78 52 35 49 42 28 29 10 8 10 4 4 7 8 360 355 348 349 343 330 328 322 323 322 323
151 152 152 150 152 155 156 149 153 155 158 164 164 164 164 164 162 164 165 163 158 156 144 152 170 171 168 163 165 180 157 161 170 171 168 166 166 135 112 86 56 56 40 35 45 5 6 6 4 5 5 5 3 352 356 357 352 341 331 322 320 313 314
146 144 147 150 154 155 154 156 158 157 156 156 154 150 153 162 161 164 164 164 159 154 143 159 166 169 163 157 163 174 162 164 166 165 163 164 161 143 127 100 83 77 45 49 46 23 16 343 3 6 2 360 358 356 4 356 329 310 303 312 314 313 311
89 113 147 153 157 158 155 155 152 154 152 155 153 164 165 167 166 163 164 170 163 151 151 168 171 170 163 161 175 173 165 174 167 167 167 162 159 145 141 119 115 83 72 58 35 9 16 337 4 4 3 356 355 355 2 351 337 327 325 314 303 292 292
158 159 162 171 162 153 146 140 147 159 162 163 167 170 165 164 165 166 168 171 166 156 154 157 173 173 165 175 185 174 178 179 171 171 163 167 165 152 107 91 72 138 66 65 19 5 6 338 2 1 357 353 355 360 356 350 341 334 325 313 304 302 297
157 165 177 164 144 148 153 155 158 166 167 163 163 163 167 166 167 167 170 167 152 155 152 154 175 175 173 177 189 184 183 178 176 176 174 170 174 160 144 147 128 14 31 29 347 347 12 347 351 353 347 344 350 353 355 337 335 331 330 328 328 326 318
168 164 155 140 144 147 144 143 158 164 163 168 163 168 170 170 168 168 160 162 165 165 155 158 171 178 175 184 200 195 184 180 181 176 184 179 174 173 161 155 162 171 215 230 330 333 354 53 327 339 334 341 345 340 339 325 318 318 311 312 313 314 313
162 166 162 165 161 151 153 155 157 168 168 168 163 168 172 168 166 161 166 168 165 166 162 159 161 173 173 182 192 204 186 190 182 179 184 186 190 179 176 173 155 137 159 30 330 318 307 312 282 299 308 332 329 320 307 304 308 302 306 309 313 321 333
161 160 161 154 155 151 163 167 171 175 177 166 165 170 171 171 169 165 166 166 166 167 161 162 155 172 173 176 185 218 204 190 185 179 181 183 184 185 189 171 186 112 75 340 320 297 293 291 283 266 309 313 293 291 291 290 300 315 321 326 330 336 344
159 154 153 156 158 165 164 165 162 173 170 164 165 167 172 174 172 167 166 171 169 167 166 165 161 163 173 180 189 204 219 161 132 196 179 176 179 173 175 183 158 122 271 311 294 290 283 290 265 269 315 299 293 298 281 293 312 316 330 333 336 342 345
161 163 160 161 162 153 159 155 146 161 171 165 164 167 176 179 178 172 170 169 170 172 172 170 166 174 169 183 182 188 169 151 169 193 180 169 171 165 188 196 115 72 296 295 284 276 280 269 280 306 294 289 299 288 289 311 325 333 328 339 343 344 344